Location: Biltmore Gardens
(41.6070°N, 83.4666°W)
Time: 13:35:43
(UTC+00:00)

Hubble Space Telescope - Visible Passes

Search period start: 28 February 2021 00:00
Search period end: 10 March 2021 00:00
Orbit: 536 x 539 km, 28.5° (Epoch: 28 February)

Date Brightness Start Highest point End Pass type
(mag) Time Alt. Az. Time Alt. Az. Time Alt. Az.
06 Mar 3.2 01:10:56 10° S 01:11:20 10° S 01:11:20 10° S visible
07 Mar 3.1 00:59:24 10° SSW 01:00:49 12° S 01:01:12 11° SSE visible
08 Mar 3.0 00:48:06 10° SSW 00:49:48 12° S 00:51:03 11° SSE visible
09 Mar 3.1 00:36:57 10° SSW 00:38:48 13° S 00:40:41 10° SSE visible
